Date String (YYYY-MM-DD hh:mm:ss) UTC,Instrument flags,Ambient pressure (hPa),Sample flow (lpm),Bypass flow (lpm),Sample temperature (°C),Ambient temperature (°C),ASC tube jacket temperature (°C),LED temperature (°C),Box temperature (°C),Sample RH (%),Span deviation,Mass concentration (μg/m³),Mass concentration (μg/m³),Mass concentration (μg/m³)
DateTimeUTC,F1_M11,P_M11,Q1_M11,Q2_M11,T1_M11,T2_M11,T3_M11,T4_M11,T5_M11,U1_M11,ZSPAN_M11,X0_M11,X2_M11,X1_M11
2021-10-17 11:00:00,,0831.3,4.99,0.00,27.4,26.3,00.0,36.5,29.1,09.3,0000.0,0004.46,0002.02,0001.30
2021-10-17 11:01:00,,0831.2,5.00,0.00,27.4,26.3,00.0,36.5,29.1,09.4,0000.0,0004.40,0002.00,0001.28
2021-10-17 11:02:00,,0831.2,5.00,0.00,27.4,26.3,00.0,36.5,29.1,09.5,0000.0,0004.35,0001.97,0001.28
2021-10-17 11:03:00,,0831.2,4.99,0.00,27.4,26.3,00.0,36.5,29.1,09.4,0000.0,0004.57,0002.06,0001.29
2021-10-17 11:04:00,,0831.3,5.01,0.00,27.3,26.3,00.0,36.5,29.1,09.4,0000.0,0004.41,0002.04,0001.28
2021-10-17 11:05:00,,0831.3,5.00,0.00,27.3,26.3,00.0,36.5,29.0,09.4,0000.0,0004.35,0002.01,0001.25
2021-10-17 11:06:00,,0831.3,4.99,0.00,27.3,26.3,00.0,36.5,29.0,09.4,0000.0,0003.95,0001.97,0001.23
2021-10-17 11:07:00,,0831.2,5.00,0.00,27.3,26.3,00.0,36.5,29.1,09.4,0000.0,0003.89,0001.99,0001.25
2021-10-17 11:08:00,,0831.2,4.99,0.00,27.3,26.3,00.0,36.5,29.0,09.4,0000.0,0003.86,0001.98,0001.26
2021-10-17 11:09:00,,0831.2,5.01,0.00,27.3,26.3,00.0,36.5,29.1,09.4,0000.0,0003.85,0001.98,0001.26
2021-10-17 11:10:00,,0831.2,5.00,0.00,27.3,26.3,00.0,36.5,29.0,09.4,0000.0,0003.92,0001.98,0001.27
2021-10-17 11:11:00,,0831.2,5.00,0.00,27.3,26.3,00.0,36.5,29.0,09.5,0000.0,0004.56,0001.96,0001.30
2021-10-17 11:12:00,,0831.3,5.00,0.00,27.3,26.3,00.0,36.5,29.1,09.5,0000.0,0004.95,0001.95,0001.31
2021-10-17 11:13:00,,0831.2,4.99,0.00,27.3,26.3,00.0,36.5,29.1,09.6,0000.0,0005.70,0001.96,0001.32
2021-10-17 11:14:00,,0831.2,5.01,0.00,27.3,26.3,00.0,36.5,29.1,09.6,0000.0,0006.37,0001.95,0001.35
2021-10-17 11:15:00,,0831.2,5.01,0.00,27.3,26.3,00.0,36.5,29.0,09.7,0000.0,0006.54,0002.01,0001.39
2021-10-17 11:16:00,,0831.2,5.00,0.00,27.3,26.3,00.0,36.4,29.0,09.9,0000.0,0007.23,0002.04,0001.45
2021-10-17 11:17:00,,0831.3,5.00,0.00,27.3,26.3,00.0,36.4,29.0,09.8,0000.0,0007.07,0002.07,0001.51
2021-10-17 11:18:00,,0831.3,5.00,0.00,27.3,26.3,00.0,36.4,29.0,09.8,0000.0,0007.45,0002.15,0001.57
2021-10-17 11:19:00,,0831.2,5.01,0.00,27.3,26.2,00.0,36.4,29.0,09.7,0000.0,0007.58,0002.23,0001.61
2021-10-17 11:20:00,,0831.2,5.00,0.00,27.3,26.2,00.0,36.4,29.0,09.7,0000.0,0007.65,0002.33,0001.67
2021-10-17 11:21:00,,0831.2,5.00,0.00,27.3,26.2,00.0,36.4,29.0,09.8,0000.0,0007.74,0002.41,0001.74
2021-10-17 11:22:00,,0831.2,5.00,0.00,27.3,26.2,00.0,36.4,29.0,09.8,0000.0,0008.50,0002.48,0001.79
2021-10-17 11:23:00,,0831.1,4.99,0.00,27.3,26.2,00.0,36.4,28.9,09.8,0000.0,0008.04,0002.52,0001.83
2021-10-17 11:24:00,,0831.2,5.00,0.00,27.2,26.2,00.0,36.4,29.0,09.6,0000.0,0007.59,0002.55,0001.84
2021-10-17 11:25:00,,0831.2,4.99,0.00,27.2,26.2,00.0,36.4,29.0,09.7,0000.0,0006.93,0002.52,0001.85
2021-10-17 11:26:00,,0831.2,5.00,0.00,27.2,26.2,00.0,36.4,29.0,09.9,0000.0,0007.38,0002.55,0001.86
2021-10-17 11:27:00,,0831.2,5.01,0.00,27.2,26.2,00.0,36.4,28.9,09.9,0000.0,0007.89,0002.61,0001.87
2021-10-17 11:28:00,,0831.2,5.00,0.00,27.2,26.2,00.0,36.4,28.9,09.9,0000.0,0007.99,0002.65,0001.88
2021-10-17 11:29:00,,0831.2,5.00,0.00,27.2,26.2,00.0,36.4,29.0,09.9,0000.0,0007.76,0002.63,0001.88
2021-10-17 11:30:00,,0831.2,4.99,0.00,27.2,26.2,00.0,36.4,28.9,09.9,0000.0,0008.16,0002.64,0001.91
2021-10-17 11:31:00,,0831.2,5.00,0.00,27.2,26.2,00.0,36.4,28.9,09.8,0000.0,0008.46,0002.64,0001.90
2021-10-17 11:32:00,,0831.2,5.01,0.00,27.2,26.2,00.0,36.4,29.0,09.9,0000.0,0008.95,0002.65,0001.89
2021-10-17 11:33:00,,0831.2,4.99,0.00,27.2,26.2,00.0,36.4,29.0,09.8,0000.0,0008.57,0002.64,0001.92
2021-10-17 11:34:00,,0831.2,5.01,0.00,27.2,26.2,00.0,36.3,28.9,09.7,0000.0,0009.08,0002.58,0001.88
2021-10-17 11:35:00,,0831.2,5.00,0.00,27.2,26.2,00.0,36.3,28.9,09.9,0000.0,0009.26,0002.65,0001.92
2021-10-17 11:36:00,,0831.2,5.01,0.00,27.2,26.2,00.0,36.3,29.0,09.9,0000.0,0009.64,0002.78,0001.96
2021-10-17 11:37:00,,0831.2,5.00,0.00,27.2,26.2,00.0,36.3,28.9,10.0,0000.0,0010.08,0002.87,0002.00
2021-10-17 11:38:00,,0831.2,4.98,0.00,27.2,26.2,00.0,36.3,28.9,09.9,0000.0,0009.28,0002.88,0002.02
2021-10-17 11:39:00,,0831.2,5.01,0.00,27.2,26.2,00.0,36.3,29.0,09.9,0000.0,0009.18,0002.88,0002.04
2021-10-17 11:40:00,,0831.2,4.99,0.00,27.2,26.2,00.0,36.3,28.9,10.1,0000.0,0009.24,0002.94,0002.07
2021-10-17 11:41:00,,0831.2,5.00,0.00,27.2,26.2,00.0,36.3,28.9,10.1,0000.0,0008.85,0003.04,0002.11
2021-10-17 11:42:00,,0831.2,5.00,0.00,27.2,26.2,00.0,36.3,28.9,10.3,0000.0,0008.89,0003.16,0002.20
2021-10-17 11:43:00,,0831.2,4.99,0.00,27.2,26.2,00.0,36.3,28.9,10.3,0000.0,0008.84,0003.21,0002.28
2021-10-17 11:44:00,,0831.2,5.01,0.00,27.2,26.2,00.0,36.3,29.0,10.4,0000.0,0008.76,0003.30,0002.36
2021-10-17 11:45:00,,0831.2,4.99,0.00,27.2,26.2,00.0,36.3,28.9,10.4,0000.0,0008.38,0003.40,0002.47
2021-10-17 11:46:00,,0831.2,5.00,0.00,27.2,26.2,00.0,36.3,28.9,10.4,0000.0,0008.51,0003.47,0002.56
2021-10-17 11:47:00,,0831.2,5.00,0.00,27.2,26.2,00.0,36.3,28.9,10.5,0000.0,0008.29,0003.48,0002.65
2021-10-17 11:48:00,,0831.2,5.00,0.00,27.2,26.2,00.0,36.3,28.9,10.5,0000.0,0007.66,0003.50,0002.74
2021-10-17 11:49:00,,0831.2,5.00,0.00,27.2,26.2,00.0,36.3,28.9,10.4,0000.0,0008.34,0003.55,0002.81
2021-10-17 11:50:00,,0831.2,5.01,0.00,27.2,26.2,00.0,36.3,28.9,10.4,0000.0,0008.73,0003.60,0002.90
2021-10-17 11:51:00,,0831.2,4.98,0.00,27.2,26.2,00.0,36.3,28.9,10.4,0000.0,0009.15,0003.65,0002.97
2021-10-17 11:52:00,,0831.2,5.00,0.00,27.1,26.2,00.0,36.3,28.9,10.4,0000.0,0009.10,0003.64,0003.01
2021-10-17 11:53:00,,0831.1,5.01,0.00,27.2,26.2,00.0,36.3,28.9,10.4,0000.0,0008.88,0003.61,0003.03
2021-10-17 11:54:00,,0831.2,5.01,0.00,27.2,26.2,00.0,36.3,29.0,10.3,0000.0,0008.60,0003.59,0003.02
2021-10-17 11:55:00,,0831.2,4.99,0.00,27.2,26.2,00.0,36.3,28.9,10.4,0000.0,0008.81,0003.56,0003.03
2021-10-17 11:56:00,,0831.1,5.00,0.00,27.2,26.2,00.0,36.3,28.9,10.4,0000.0,0009.25,0003.53,0003.04
2021-10-17 11:57:00,,0831.2,4.99,0.00,27.2,26.2,00.0,36.3,29.0,10.5,0000.0,0009.04,0003.50,0003.06
2021-10-17 11:58:00,,0831.2,5.00,0.00,27.2,26.2,00.0,36.3,29.0,10.5,0000.0,0009.00,0003.50,0003.06
2021-10-17 11:59:00,,0831.1,4.99,0.00,27.2,26.2,00.0,36.3,29.0,10.5,0000.0,0009.15,0003.53,0003.07
